Regional Weather Roundup
Issued by NWS

Home | Current Version | Previous Version | Graphics & Text | Print | Product List | Glossary Off
Versions: 1 2 3 4 5 6 7 8 9 10 11 12 13 14 15 16 17 18 19 20 21 22 23 24 25 26 27 28 29 30 31 32 33 34 35 36 37 38 39 40 41 42 43 44 45 46 47 48 49 50

000
ASUS43 KLSX 181007
RWRMO

WEATHER SUMMARY FOR MISSOURI
NATIONAL WEATHER SERVICE SPRINGFIELD MO
500 AM CDT WED OCT 18 2017

NOTE: "FAIR" INDICATES FEW OR NO CLOUDS BELOW 12,000 FEET WITH NO
       SIGNIFICANT WEATHER AND/OR OBSTRUCTIONS TO VISIBILITY.
       CURRENT SKY AND/OR WEATHER CONDITIONS ARE NOT AVAILABLE FOR
       CHILLICOTHE AND FARMINGTON.

MOZ001>031-035>038-043-044-053-054-181100-
...NORTHERN AND WESTERN MISSOURI...

CITY           SKY/WX    TMP DP  RH WIND       PRES   REMARKS
KANSAS CTY INT CLEAR     54  45  71 S10       30.05S
KANSAS C DTWN  CLEAR     57  46  66 S9        30.06S
LEE`S SUMMIT   CLEAR     52  45  77 S12       30.08S
ST JOSEPH      CLEAR     54  47  77 S8        30.03F
CHILLICOTHE      N/A     49  46  90 SE3       30.08F
KIRKSVILLE     CLEAR     50  44  80 S7        30.10S

$$
MOZ066>068-077>081-088>096-101>105-181100-
...SOUTHWEST MISSOURI...

CITY           SKY/WX    TMP DP  RH WIND       PRES   REMARKS
SPRINGFIELD    CLEAR     49  41  74 SE14      30.15S
JOPLIN         CLEAR     49  43  80 S10       30.12F
BRANSON        PTCLDY    45  39  81 CALM      30.18S

$$
MOZ032>034-039>042-045>050-055>058-069>072-181100-
...CENTRAL MISSOURI...

CITY           SKY/WX    TMP DP  RH WIND       PRES   REMARKS
COLUMBIA       PTCLDY    48  41  76 S9        30.14S
JEFFERSON CITY PTCLDY    46  39  76 SE7       30.15F
ROLLA          CLEAR     50  40  68 S12       30.17S
SEDALIA        CLEAR     47  44  90 S7        30.12S
WHITEMAN AFB   CLEAR     47  42  82 S10       30.06S
WARRENSBURG    CLEAR     48  43  81 S8        30.09F
OSAGE BEACH    PTCLDY    47  40  76 SE6       30.16S

$$
MOZ051-052-059>065-181100-
...EAST CENTRAL MISSOURI...

CITY           SKY/WX    TMP DP  RH WIND       PRES   REMARKS
ST LOUIS INTL  CLEAR     50  42  74 S5        30.19S
SPIRIT OF STL  CLEAR     42  40  92 CALM      30.18S
ST CHARLES     CLEAR     42  40  92 E6        30.18S

$$
MOZ072>076-082>087-097>100-106>115-181100-
...SOUTH CENTRAL AND SOUTHEAST MISSOURI...

CITY           SKY/WX    TMP DP  RH WIND       PRES   REMARKS
CAPE GIRARDEAU CLEAR     39  38  96 CALM      30.22S
FARMINGTON     CLEAR     47  40  76 S6        30.21R
POPLAR BLUFF   CLEAR     38  38 100 CALM      30.22R
WEST PLAINS    CLEAR     47  38  71 S3        30.20S

$$


USA.gov is the U.S. government's official web portal to all federal, state and local government web resources and services.